AirNav   Phillips 66 Aviation Fuel
 
 1051 users online  

KCLW Clearwater Air Park
Clearwater, Florida, USA

GOING TO CLEARWATER?


FAA INFORMATION EFFECTIVE 13 SEPTEMBER 2018

Location

FAA Identifier: CLW
Lat/Long: 27-58-37.9700N / 082-45-32.6050W
27-58.632833N / 082-45.543417W
27.9772139 / -82.7590569
(estimated)
Elevation: 71 ft. / 21.6 m (surveyed)
Variation: 04W (2000)
From city: 3 miles NE of CLEARWATER, FL
Time zone: UTC -4 (UTC -5 during Standard Time)
Zip code: 33755

Airport Operations

Airport use: Open to the public
Activation date: 10/1942
Control tower: no
ARTCC: MIAMI CENTER
FSS: SAINT PETERSBURG FLIGHT SERVICE STATION
NOTAMs facility: CLW (NOTAM-D service available)
Attendance: 0700-2300
LNDGS & TKOFS PERMITTED 0700-2300.
Wind indicator: lighted
Segmented circle: yes
SEG CIRCLE PAINTED ON RWY.
Lights: ACTVT MIRL RY 16/34 - CTAF.

Airport Communications

CTAF/UNICOM: 123.0
WX AWOS-3P: 119.225 (727-449-2184)
TAMPA APPROACH: 125.3
TAMPA DEPARTURE: 125.3
WX ASOS at PIE (6 nm SE): PHONE 727-531-3456
WX ASOS at TPA (12 nm E): PHONE 813-873-7228
WX ASOS at SPG (15 nm SE): 118.875 (727-821-4334)
WX AWOS-3 at TPF (17 nm E): 118.925 (813-251-6824)

Nearby radio navigation aids

VOR radial/distance  VOR name  Freq  Var
PIEr321/5.7ST PETERSBURG VORTAC116.4005W
SRQr348/35.8SARASOTA VOR/DME117.0005W
LALr268/39.5LAKELAND VORTAC116.0001E

 
NDB name  Hdg/Dist  Freq  Var  ID
CAPOK255/3.136005WPI .--. ..
COSME247/14.036805WTP - .--.

Airport Services

Fuel available: 100LL JET-A
Parking: tiedowns
Airframe service: MAJOR
Powerplant service: MAJOR
Bottled oxygen: NONE
Bulk oxygen: NONE

Runway Information

Runway 16/34

Dimensions: 4108 x 75 ft. / 1252 x 23 m
Surface: asphalt, in excellent condition
Runway edge lights: medium intensity
RUNWAY 16  RUNWAY 34
Latitude: 27-58.938000N27-58.327667N
Longitude: 082-45.709667W082-45.377167W
Elevation: 65.9 ft.69.3 ft.
Gradient: 0.1%0.1%
Traffic pattern: leftright
Displaced threshold: 357 ft.846 ft.
Markings: basic, in good conditionbasic, in good condition
Visual slope indicator: 4-box VASI on left (3.50 degrees glide path)4-box VASI on right (3.50 degrees glide path)
Touchdown point: yes, no lightsyes, no lights
Obstructions: 60 ft. trees, 842 ft. from runway, 125 ft. left of centerline, 10:1 slope to clear
RWY 16 APCH RATIO 20:1 TO DSPLCD THLD..
58 ft. trees, 534 ft. from runway, 65 ft. left of centerline, 5:1 slope to clear
RWY 34 APCH RATIO 24:1 TO DSPLCD THLD.

Airport Ownership and Management from official FAA records

Ownership: Publicly-owned
Owner: CITY OF CLEARWATER
P.O. BOX 4748, ATTN; MARINE DEPARTMENT
CLEARWATER, FL 33758-4748
Phone 727-462-6954
CONTACT PERSON: WILLIAM MORRIS 727-462-6954.
Manager: GORDON WILLS
25 CAUSEWAY BLVD., P.O. BOX4748
CLEARWATER, FL 33767
Phone 727-462-6954
AIRPORT PHYSICAL ADDRESS: 1000 NORTH HERCULES AVENUE, CLEARWATER, FL 33765 727-462-6954 FAX: 727-462-6957

Airport Operational Statistics

Aircraft based on the field: 60
Single engine airplanes: 52
Multi engine airplanes: 7
Helicopters: 1
    
Aircraft operations: avg 139/day *
90% local general aviation
10% transient general aviation
<1% air taxi
<1% military
* for 12-month period ending 13 December 2016

Additional Remarks

FULL STOP LNDG ONLY. NO TOUCH & GO.
RY 16/34 TREES PENETRATE 7:1 TRANS SFC W SIDE.
NOISE ABATEMENT PROCEDURES IN EFFECT CTC FBO 727-443-3433.

Instrument Procedures

NOTE: All procedures below are presented as PDF files. If you need a reader for these files, you should download the free Adobe Reader.

NOT FOR NAVIGATION. Please procure official charts for flight.
FAA instrument procedures published for use from 13 September 2018 at 0901Z to 11 October 2018 at 0900Z.

 
STARs - Standard Terminal Arrivals
BRDGE EIGHT   download (235KB)

Other nearby airports with instrument procedures:

KPIE - St Pete-Clearwater International Airport (6 nm SE)
KTPA - Tampa International Airport (12 nm E)
KSPG - Albert Whitted Airport (15 nm SE)
KMCF - MacDill Air Force Base (15 nm SE)
KTPF - Peter O Knight Airport (17 nm E)
 
Loc | Ops | Rwys | IFR | FBO | Links
Com | Nav | Svcs | Stats | Notes


 
Area around KCLW (Clearwater Air Park)
 
Road maps at: MapQuest Bing Google
 
Aerial photo
WARNING: Photo may not be current or correct
Aerial photo of KCLW (Clearwater Air Park)
Photo by David King
Taken in October 2013
looking northwest from 1,500 ft.

Do you have a better or more recent aerial photo of Clearwater Air Park that you would like to share? If so, please send us your photo.

 
Sectional chart

 
Airport distance calculator
Flying to Clearwater Air Park? Find the distance to fly.

From to KCLW

Sunrise and sunset
Times for 20-Sep-2018
 Local
(UTC-4)
 Zulu
(UTC)
Morning civil twilight06:5610:56
Sunrise07:2011:20
Sunset19:2923:29
Evening civil twilight19:5323:53

Current date and time
Zulu (UTC)  20-Sep-2018 22:58:24
Local (UTC-4)  20-Sep-2018 18:58:24
 
METAR
KCLW 202235Z AUTO 04007KT 10SM SCT030 SCT060 BKN090 27/21 A2999 RMK AO2
KPIE 
5nm SE 
202253Z 35008KT 10SM VCTS FEW050 BKN100 28/23 A3000 RMK AO2 LTG DSNT NW-E RAE04 SLP157 P0000 T02830233
KTPA 
12nm E 
202213Z 33007KT 10SM VCTS SCT038TCU SCT080 BKN150 29/23 A2999 RMK AO2 TSE07 CB DSNT W-N TCU ALQDS T02890233
KSPG 
14nm SE 
202253Z 03004KT 10SM FEW055 32/24 A2997 RMK AO2 LTG DSNT NW-E SLP148 T03170239
KMCF 
15nm SE 
202156Z AUTO 03006KT 10SM CLR 31/23 A2998 RMK AO2 TSB28E46 SLP155 T03090232 FZRANO $
KTPF 
17nm E 
202255Z AUTO 06013G16KT BKN055 BKN080 OVC095 27/23 A3002 RMK AO2 PWINO
TAF
KPIE 
5nm SE 
202102Z 2021/2118 33008KT P6SM VCTS SCT035CB BKN250 TEMPO 2021/2023 3SM TSRA BKN030CB FM210100 07005KT P6SM FEW250 FM211300 04005KT P6SM FEW035 SCT250
KTPA 
12nm E 
202101Z 2021/2124 26007KT P6SM VCTS SCT045CB BKN250 TEMPO 2021/2023 3SM TSRA BKN030CB FM210000 VRB03KT P6SM SCT250 FM211300 07005KT P6SM FEW035 SCT250 FM211800 24006KT P6SM VCTS SCT035CB SCT250
KMCF 
15nm SE 
201730Z 2017/2122 29006KT 9999 FEW050 QNH3002INS BECMG 2018/2019 08009KT 9999 VCTS SCT050CB QNH2996INS TEMPO 2020/2024 VRB12G18KT 8000 -TSRA BKN040CB BECMG 2100/2101 10006KT 9999 NSW FEW025 SCT040 QNH2998INS BECMG 2114/2115 08009KT 9999 SCT040 SCT060 QNH2995INS TX33/2018Z TN25/2111Z
NOTAMs
Click for the latest NOTAMs
NOTAMs are issued by the DoD/FAA and will open in a separate window not controlled by AirNav.

 

 
 

FBO, Fuel Providers, and Aircraft Ground Support

  
 Business Name 
 
 Contact 
 
 Services / Description 
 
Fuel Prices
 
Comments
  
 Clearwater Airpark, Inc.
UNICOM 123.00
727-443-3433
[web site]
[email]
Clearwater Airpark has been named "2014 General Aviation Airport of the Year" by the Florida Dept. of Transportation.

Located in Clearwater, facilitating your needs with no landing fees, a new longer runway, now 4108' x 75', crew car and full service Jet A and 100LL at superior pricing.
 
AirBoss™ fuel program  
 
More info about Clearwater Airpark, Inc.
Phillips 66
100LL Jet A
FS $5.59 $4.58 
GUARANTEED
AirBossMEMBERS
ONLY
Discounts
LoginJoin
 
   5 read write
FS=Full service
Update Fuel Prices
 

Would you like to see your business listed on this page?

 If your business provides an interesting product or service to pilots, flight crews, aircraft, or users of the Clearwater Air Park, you should consider listing it here.  To start the listing process, click on the button below
 
Add a business
 

Other Pages about Clearwater Air Park

www.clearwaterairpark.net
 
Update a link
 
Copyright © AirNav, LLC. All rights reserved. Privacy Policy  Contact